This is the latest recevied weather packets stored in our database for station/object KB1ZFK. If no packets are shown the sender has not sent any weather packets the latest 10 day(s).
| Time | Temp. | Humidity | Pressure | Rain* | Wind** | Luminosity | Snow |
|---|---|---|---|---|---|---|---|
| 1777562608 | 7.22° C | 98% | 1006.9 hPa | 1.78 mm | - | 68 W/m² | - |
| 1777562307 | 7.78° C | 98% | 1007.1 hPa | 0 mm | - | 76 W/m² | - |
| 1777562003 | 7.78° C | 98% | 1006.8 hPa | 1.27 mm | - | 76 W/m² | - |
| 1777561701 | 7.22° C | 98% | 1006.8 hPa | 1.27 mm | - | 97 W/m² | - |
| 1777561396 | 7.22° C | 98% | 1007.3 hPa | 1.78 mm | - | 70 W/m² | - |
| 1777561091 | 7.22° C | 98% | 1007.1 hPa | 1.78 mm | - | 78 W/m² | - |
| 1777560787 | 7.22° C | 98% | 1007.1 hPa | 1.78 mm | - | 80 W/m² | - |
| 1777560484 | 7.22° C | 98% | 1007.1 hPa | 1.78 mm | - | 58 W/m² | - |
| 1777560182 | 7.22° C | 98% | 1007.2 hPa | 0 mm | - | 38 W/m² | - |
| 1777559879 | 7.22° C | 98% | 1007.4 hPa | 0 mm | - | 43 W/m² | - |
| 1777559574 | 7.22° C | 98% | 1007.5 hPa | 0 mm | - | 55 W/m² | - |
| 1777559271 | 7.22° C | 98% | 1007.4 hPa | 0 mm | - | 46 W/m² | - |
| 1777558967 | 7.22° C | 98% | 1007.3 hPa | 1.27 mm | - | 44 W/m² | - |
| 1777558663 | 7.22° C | 98% | 1007.4 hPa | 1.27 mm | - | 80 W/m² | - |
| 1777558358 | 7.22° C | 98% | 1007.2 hPa | 0 mm | - | 73 W/m² | - |
| 1777558056 | 7.22° C | 98% | 1007.5 hPa | 0 mm | - | 67 W/m² | - |
| 1777557752 | 7.22° C | 98% | 1007.2 hPa | 0 mm | - | 62 W/m² | - |
| 1777557449 | 6.67° C | 98% | 1007.3 hPa | 0 mm | - | 93 W/m² | - |
| 1777557145 | 7.22° C | 98% | 1007.3 hPa | 1.78 mm | - | 103 W/m² | - |
| 1777556840 | 6.67° C | 98% | 1007.3 hPa | 1.78 mm | - | 119 W/m² | - |
| 1777556537 | 7.22° C | 98% | 1007.3 hPa | 0 mm | - | 117 W/m² | - |
| 1777556236 | 7.22° C | 98% | 1007.4 hPa | 0 mm | - | 121 W/m² | - |
| 1777555933 | 7.22° C | 98% | 1007.3 hPa | 1.27 mm | - | 115 W/m² | - |
| 1777555629 | 6.67° C | 98% | 1007.5 hPa | 1.27 mm | - | 99 W/m² | - |
| 1777555325 | 6.67° C | 98% | 1007.5 hPa | 1.27 mm | - | 80 W/m² | - |
* Rain latest hour (hover to see other rain measurements)
** Current wind speed in m/s (hover to see current wind gust speed)